Theta_e
309 307 316 315 317 315 317 319 334 335 338 337 337 338 341 342 342 343 340 340 340 340 340 339 339 339 337 336 335 333 334 336 335 334 333 331 326 321 318 313 308 310 315 313 314 317 320 320 322
307 313 315 312 316 317 322 329 337 337 336 333 335 339 343 348 342 342 340 341 340 340 339 339 338 337 337 336 336 336 337 336 334 333 330 325 321 319 317 312 309 310 310 311 311 311 312 312 313
308 314 312 313 314 316 324 331 333 333 332 332 333 330 336 346 341 340 340 341 340 339 338 338 337 337 337 337 337 337 336 333 332 330 324 321 319 318 316 312 308 309 310 310 309 309 309 309 309
312 312 308 314 315 314 324 325 329 331 332 333 331 335 331 339 340 341 341 341 340 339 338 338 337 337 336 336 334 332 332 332 327 322 320 319 319 317 316 312 308 309 309 309 308 308 308 308 307
317 308 312 314 314 318 320 326 330 332 332 332 332 334 334 343 340 340 341 340 339 339 339 339 338 336 334 332 333 333 330 325 320 318 318 318 317 316 313 308 308 308 308 313 313 314 312 311 309
311 308 313 314 322 324 321 324 332 334 332 333 336 333 330 342 341 342 341 340 339 340 341 340 338 337 336 336 332 327 323 320 317 317 316 317 315 313 313 319 319 317 320 318 318 318 317 316 315
311 310 313 316 326 322 323 319 334 332 332 332 330 330 329 341 341 342 340 343 343 344 340 339 339 337 333 329 325 322 319 317 316 316 319 320 318 319 321 323 321 321 321 319 319 317 317 317 317
309 310 315 321 325 325 319 316 321 332 331 328 326 330 335 331 342 341 343 343 344 342 340 337 332 329 325 323 320 318 316 316 318 320 324 324 322 324 324 324 323 322 322 320 319 318 317 316 316
310 311 312 314 319 324 323 314 315 320 329 326 325 326 335 340 339 339 341 341 340 336 330 324 323 321 321 320 318 316 317 319 322 326 326 324 324 325 325 325 324 322 320 319 320 319 318 317 317
312 309 312 313 316 318 313 319 320 326 328 329 325 322 331 333 336 334 334 335 335 331 327 323 322 317 318 316 316 319 323 324 327 328 326 325 326 326 326 324 322 321 319 318 318 319 319 318 317
311 312 311 311 316 314 313 312 314 325 328 329 326 323 326 330 329 329 329 328 327 326 327 327 325 321 320 318 323 325 326 327 326 327 326 327 327 326 323 320 317 318 318 318 318 318 319 319 318
314 310 310 310 311 310 310 310 315 315 325 326 324 322 322 324 325 326 328 329 330 329 330 330 329 325 325 323 326 327 327 327 327 326 325 325 325 323 319 318 318 319 319 319 320 318 318 318 317
311 310 310 310 309 309 309 310 312 312 317 326 323 321 322 322 322 325 329 329 331 331 331 331 330 328 327 327 326 328 328 328 329 328 325 321 322 320 319 320 320 319 317 317 317 317 317 316 315
310 310 310 311 312 311 311 313 313 311 323 325 323 321 320 320 321 321 322 326 329 331 332 331 330 330 329 327 328 328 329 328 329 328 327 325 323 323 321 320 316 313 312 312 312 313 314 315 313
309 310 311 311 313 313 313 315 312 310 325 326 325 324 323 322 322 321 321 322 329 331 332 331 329 329 328 328 328 328 328 325 327 328 328 323 321 321 319 315 314 313 312 312 312 312 312 311 310
312 310 311 312 314 313 311 310 313 309 326 327 326 325 323 321 321 322 323 321 326 331 331 330 329 328 327 328 328 327 324 324 325 325 320 318 317 315 315 313 311 311 311 311 311 310 309 308 307
310 312 314 315 312 314 314 315 312 307 319 314 318 319 319 319 319 321 323 322 322 330 331 330 328 326 326 324 324 321 319 318 318 316 314 314 313 312 311 311 311 310 311 310 307 306 306 306 306
313 315 312 314 314 314 314 314 313 316 316 318 318 317 317 318 318 319 323 328 329 331 330 325 327 326 324 323 320 317 316 314 313 312 312 311 311 311 311 310 309 308 307 306 305 305 304 304 304
315 315 314 313 314 314 314 316 319 318 321 321 319 317 317 316 315 315 321 327 330 329 329 326 324 318 319 315 316 316 313 312 312 312 311 310 310 308 307 306 305 304 303 303 302 302 302 302 303
317 317 317 316 314 315 318 317 317 318 320 321 319 317 316 316 314 314 315 321 322 322 321 319 318 316 318 318 314 313 312 312 312 310 310 309 307 305 305 304 302 301 301 300 301 301 301 301 301
320 318 318 317 315 316 318 318 316 316 316 318 317 317 315 315 315 314 312 315 318 318 315 314 314 315 315 316 312 312 311 312 312 309 308 306 304 303 302 301 300 301 301 300 300 300 301 301 301
322 320 318 316 317 320 315 320 318 318 319 319 318 317 317 316 314 312 312 312 312 311 312 312 312 312 312 312 311 311 311 311 309 307 304 303 302 300 300 300 300 300 299 299 298 298 299 299 299
321 319 318 318 315 315 317 317 318 317 320 319 318 318 317 315 313 312 312 313 314 313 313 313 313 312 312 311 311 311 311 308 306 303 302 303 301 300 300 301 301 300 299 298 298 297 297 297 296
318 319 319 318 317 318 320 319 319 318 318 317 317 317 317 314 312 312 313 313 313 312 311 310 310 311 311 311 310 309 309 306 302 304 305 305 303 304 304 303 299 299 298 297 297 296 294 292 292
318 319 320 321 318 320 320 322 320 318 316 317 317 315 313 312 312 313 313 312 312 312 313 312 312 311 309 308 306 305 304 303 304 304 306 306 304 303 302 300 299 296 295 294 293 292 291 290 289
319 319 320 324 319 319 318 322 319 317 316 316 315 313 312 315 312 309 309 310 309 309 309 309 308 306 306 306 306 306 306 305 305 305 304 303 302 302 300 298 294 293 293 293 291 290 289 289 289
320 316 316 317 313 317 318 318 316 316 317 315 315 314 311 310 309 308 308 308 308 307 307 307 307 307 306 305 305 305 305 304 304 303 302 301 301 300 297 295 294 293 292 291 290 289 289 289 289
316 316 319 313 317 317 318 320 318 316 316 314 313 312 310 308 308 307 307 305 305 306 306 305 306 305 301 301 301 303 304 303 303 302 302 300 299 297 296 296 294 292 291 289 289 289 288 288 288
318 318 315 315 312 314 315 319 313 315 314 314 312 311 309 308 307 306 306 305 304 303 301 300 298 297 296 296 295 295 295 295 296 300 300 299 297 296 295 294 292 292 290 289 289 288 288 288 289
317 318 313 311 318 310 308 314 313 313 313 313 311 310 308 307 306 305 304 303 302 298 297 296 296 296 295 295 294 294 294 294 295 298 298 296 295 294 293 293 293 291 289 288 288 288 288 288 287
Wind_Speed
6 7 4 6 2 3 2 3 2 3 5 6 2 5 7 4 1 2 12 12 28 28 25 22 21 20 19 19 19 18 16 14 14 13 12 11 12 12 13 13 13 13 13 13 13 13 12 11 10
3 4 0 2 3 1 3 3 10 7 7 6 5 5 6 4 4 10 13 23 29 28 26 23 21 20 20 19 18 16 15 13 13 12 11 11 11 12 12 12 12 13 12 13 13 12 11 11 10
3 3 2 4 3 4 2 5 7 11 8 6 3 6 1 7 7 12 16 31 28 27 25 23 21 20 20 19 18 16 14 12 11 10 10 10 10 10 11 11 11 12 12 13 13 12 11 10 10
3 3 3 3 5 6 4 5 5 3 6 17 2 3 5 2 7 14 33 30 28 26 24 22 20 19 18 18 17 15 14 12 10 10 9 9 9 9 10 10 10 11 12 12 13 13 12 12 11
2 2 2 2 3 4 3 4 9 7 5 5 6 6 2 3 18 32 30 29 29 25 23 21 20 19 18 17 16 14 12 11 11 10 8 8 8 9 9 10 10 10 11 12 13 13 13 13 13
2 2 4 2 2 6 4 6 5 4 4 9 9 6 1 18 27 25 27 25 25 25 22 20 18 18 17 16 13 12 12 11 9 8 9 9 9 9 9 11 11 12 12 13 16 15 16 15 14
4 3 2 3 5 5 4 4 4 11 9 4 9 5 4 3 23 26 26 23 22 23 22 20 19 17 15 14 14 13 12 10 9 9 10 11 11 10 10 11 11 11 12 11 14 15 16 16 14
4 3 1 3 5 3 7 2 4 10 3 6 8 6 7 7 24 27 26 24 24 23 22 21 18 17 16 16 14 13 11 10 10 9 10 9 9 8 9 8 8 8 8 8 9 11 14 15 15
2 4 2 3 8 11 12 5 3 2 9 1 2 5 17 31 30 30 24 22 23 22 21 20 19 18 17 15 13 12 11 11 11 10 8 6 6 6 3 4 4 4 6 5 5 7 8 11 13
4 4 9 6 9 8 7 7 8 5 3 5 7 12 26 30 31 24 20 21 25 24 23 22 19 18 18 16 15 13 12 11 10 7 6 6 3 1 2 3 4 4 5 6 6 7 7 9 11
3 4 3 3 10 9 8 4 3 11 2 8 15 15 17 22 22 22 21 30 30 27 24 24 21 19 18 18 17 14 13 10 9 6 5 3 1 0 1 3 4 5 7 9 9 9 11 12 15
2 8 1 4 7 6 8 6 5 3 8 9 22 23 19 13 18 23 24 29 28 28 28 26 23 20 18 17 16 16 14 12 11 9 6 4 1 1 1 3 4 6 9 11 12 11 13 17 18
3 3 1 6 8 6 7 4 6 4 7 11 16 18 19 16 19 25 35 33 31 31 30 28 25 23 19 19 18 16 15 14 12 10 7 3 5 3 2 2 3 5 7 9 10 11 14 17 19
7 1 4 4 6 5 6 2 1 3 7 11 17 17 15 16 23 21 24 28 33 34 33 30 28 22 20 18 18 18 15 13 14 12 9 9 8 7 4 2 1 4 8 10 12 13 14 13 13
7 5 4 2 1 3 4 2 4 5 10 16 17 16 12 12 19 23 27 27 33 32 32 29 25 19 16 15 15 15 16 13 12 12 12 8 5 3 3 1 5 8 11 13 14 13 13 14 11
5 5 3 5 2 3 5 7 3 9 12 12 8 2 6 5 6 4 4 22 29 30 31 24 19 14 4 12 12 15 12 10 10 8 5 7 6 2 3 6 10 14 17 15 14 14 13 12 13
6 3 2 4 6 2 3 4 6 5 5 8 7 7 7 7 12 11 6 12 23 26 25 19 15 12 10 3 7 9 11 14 13 12 9 6 2 1 5 11 16 16 11 11 13 13 14 13 14
3 2 3 6 5 4 2 5 8 6 11 8 8 8 9 9 7 12 14 12 19 20 17 19 11 8 8 7 13 16 16 13 9 8 6 3 2 5 9 12 11 9 10 13 16 18 18 19 21
2 3 5 4 1 8 5 8 10 7 14 11 9 11 12 12 10 20 22 17 17 14 12 9 10 12 14 15 15 12 11 9 8 5 5 6 9 10 9 9 9 12 14 15 18 20 23 23 25
5 4 2 4 8 11 12 12 9 8 5 8 11 11 13 11 12 19 28 27 23 22 18 13 15 16 14 11 10 6 4 4 5 5 6 7 8 9 10 10 11 12 14 16 18 20 20 18 20
4 2 3 6 8 6 12 9 8 6 8 9 7 7 8 13 10 7 19 24 22 18 16 16 14 12 8 4 2 3 3 2 3 3 4 6 7 9 11 13 14 11 10 11 13 13 14 13 15
3 2 3 9 5 4 4 3 2 3 4 5 5 7 7 6 9 9 16 20 21 18 14 12 9 7 6 5 4 5 7 6 3 1 4 6 8 11 12 13 11 9 10 14 16 13 13 12 13
3 2 2 2 4 4 4 6 3 6 3 4 5 6 7 6 8 8 17 19 16 14 11 8 5 2 2 3 6 7 5 3 3 6 8 13 12 10 10 15 13 11 8 12 14 11 9 10 10
2 5 6 4 3 3 2 5 6 8 7 6 3 4 7 8 6 11 16 13 10 5 4 4 4 5 4 5 6 7 4 2 7 8 13 18 17 21 29 24 5 3 9 12 10 10 12 14 11
5 5 3 3 4 4 3 2 5 12 10 9 11 8 8 8 7 7 9 12 11 8 4 4 4 8 7 7 8 10 11 6 2 10 17 25 28 24 17 8 4 6 8 8 9 9 10 9 11
3 4 5 5 3 2 4 2 4 5 9 10 7 7 5 3 5 7 15 20 20 20 17 15 14 14 13 13 11 9 13 15 17 18 21 21 22 18 11 4 5 12 8 7 8 8 9 9 10
1 3 3 6 3 3 3 3 5 5 7 9 10 6 6 7 7 10 19 19 16 14 13 12 12 11 12 13 14 15 17 17 19 19 22 19 12 8 7 2 11 8 10 9 9 8 9 10 11
4 4 3 4 3 1 2 3 4 8 9 4 5 9 7 8 8 8 14 13 13 13 13 12 12 13 13 12 13 15 17 18 21 22 23 15 11 10 7 12 14 6 13 11 10 12 11 14 16
4 2 6 5 3 4 2 5 5 9 7 7 7 8 10 8 7 7 11 12 11 12 14 15 13 11 11 13 15 16 17 19 21 23 20 16 12 6 6 5 8 14 11 9 13 14 17 17 14
1 2 4 4 3 1 3 5 3 8 9 11 9 8 7 7 7 9 10 10 12 13 13 12 10 10 12 14 17 19 20 21 23 23 16 8 9 5 7 9 16 16 14 12 14 16 15 10 11
Wind_Direction
292 271 113 90 44 44 249 288 156 21 63 56 26 103 100 12 37 170 159 149 152 149 149 147 144 140 138 137 136 133 128 127 119 111 104 94 86 81 74 67 65 66 67 63 61 60 59 59 55
294 226 44 81 102 285 289 147 109 116 134 103 56 75 43 72 86 116 129 155 149 146 147 144 142 142 142 141 141 137 134 132 126 118 107 93 88 83 73 66 65 64 62 60 58 54 51 51 48
208 213 83 113 120 193 164 205 153 144 158 67 51 30 157 125 106 152 156 155 150 143 144 143 142 143 143 142 143 139 136 132 124 115 102 96 90 80 70 68 68 62 54 48 45 38 33 31 33
175 357 26 118 208 244 221 184 161 158 51 103 258 102 48 189 170 163 152 154 147 145 143 141 143 143 145 143 141 141 140 132 121 112 101 94 83 75 71 68 66 59 48 36 31 26 18 16 18
138 72 109 98 267 243 173 141 139 127 116 157 149 129 58 52 136 143 152 153 145 141 141 142 145 145 145 144 145 145 140 132 126 118 109 97 85 78 77 74 61 50 41 31 30 21 16 10 11
23 113 58 277 240 29 60 95 114 99 81 99 98 89 14 141 135 145 152 144 146 143 145 146 151 152 150 152 151 150 144 139 129 118 111 96 93 96 83 66 60 55 40 43 30 30 26 25 31
160 98 183 266 86 43 24 63 85 128 143 149 141 105 132 151 146 145 146 142 143 148 152 154 158 160 160 159 158 155 145 142 136 131 116 106 101 98 88 71 67 50 51 46 37 34 32 28 19
116 84 99 204 118 68 322 247 173 150 171 118 151 154 171 184 150 151 145 144 148 155 159 161 162 165 164 165 163 157 148 148 139 128 121 106 106 94 76 67 61 47 44 37 30 28 27 24 17
121 59 192 197 128 139 228 225 145 74 132 329 352 117 147 151 151 147 142 146 156 162 163 161 165 167 165 165 160 155 147 140 139 135 133 112 113 99 91 59 49 28 27 13 358 7 5 15 11
109 134 214 200 152 196 197 163 138 105 146 29 72 76 137 148 148 146 152 155 164 170 170 171 167 166 167 165 157 152 147 146 141 138 146 135 128 71 350 18 11 347 338 337 335 326 325 335 344
175 222 194 218 145 166 185 194 107 127 334 170 146 145 154 151 155 154 162 167 175 175 175 179 174 173 168 163 156 155 158 155 157 150 159 168 206 299 3 22 14 347 336 340 337 329 321 324 328
192 259 189 195 146 126 157 137 123 160 189 177 154 158 159 168 169 166 172 178 181 182 184 184 181 181 176 174 170 169 165 168 171 163 167 187 218 308 26 13 359 352 352 358 348 342 340 338 337
220 224 294 113 108 125 110 134 177 243 153 149 142 157 169 173 178 177 181 184 186 190 190 191 188 188 186 190 183 186 184 189 188 184 177 187 232 229 244 287 1 13 2 348 343 335 327 325 328
174 248 126 57 117 134 124 128 84 56 121 137 154 174 176 181 186 182 187 190 193 195 195 194 193 189 197 201 196 200 197 202 202 201 203 215 226 228 242 246 33 343 329 321 316 320 326 333 333
127 76 29 31 106 111 116 40 170 134 146 156 175 184 187 198 193 193 190 192 197 201 198 195 190 181 189 198 185 189 194 198 201 216 219 227 239 220 175 275 304 319 319 319 318 318 321 317 331
77 53 99 290 103 44 91 252 243 150 145 183 175 68 57 46 62 63 213 206 197 200 198 187 182 156 206 188 182 170 180 188 201 185 177 125 107 114 291 312 328 329 327 320 323 326 327 336 346
11 148 155 311 197 74 121 257 351 73 121 88 81 72 86 68 44 65 112 200 208 203 187 165 134 146 202 220 142 157 139 112 108 120 131 140 149 319 322 323 330 333 333 340 349 349 352 347 347
211 170 187 204 203 73 268 27 8 50 99 108 95 81 81 72 36 62 110 147 175 183 165 148 147 148 196 160 135 114 106 102 108 105 101 91 333 321 342 352 358 3 4 2 358 1 352 350 349
176 161 224 249 78 74 54 46 24 25 96 101 90 87 81 71 64 74 93 107 125 124 145 148 136 110 123 116 96 82 98 86 92 66 28 17 5 357 12 30 32 22 12 3 357 351 352 350 349
72 117 20 88 66 88 74 44 42 34 57 98 107 96 93 88 71 77 92 97 98 96 89 84 118 109 96 85 78 70 107 126 89 34 0 359 5 19 16 8 7 1 356 357 2 2 358 353 356
33 56 70 98 70 67 88 38 11 20 44 70 61 94 91 110 99 82 94 103 102 101 110 110 109 105 100 43 38 171 156 183 240 305 355 25 21 15 9 2 360 7 15 23 21 11 8 352 358
48 335 40 108 96 172 81 135 -0 34 53 69 98 111 123 131 119 127 115 109 112 117 119 110 98 82 62 44 354 314 281 267 280 7 70 51 26 11 10 5 10 21 25 21 14 6 10 10 13
177 74 98 71 112 90 27 92 227 137 163 172 192 167 159 152 137 132 126 129 132 136 135 133 124 87 357 301 306 295 279 279 140 89 49 20 11 14 26 353 332 327 7 356 349 345 1 8 355
128 95 41 51 82 56 274 127 204 193 192 178 213 198 184 160 171 146 132 136 125 114 115 112 80 50 350 282 284 275 286 125 104 45 4 348 334 315 309 304 270 323 335 339 346 344 341 344 351
73 71 13 9 12 202 303 78 222 204 167 182 183 191 202 187 165 135 103 79 78 75 77 93 74 52 55 60 64 78 91 97 337 301 313 317 309 292 292 235 241 333 341 335 338 345 348 351 341
54 138 150 185 178 238 5 357 274 165 144 177 190 181 160 98 80 86 95 95 90 86 83 79 73 72 53 38 22 0 343 325 315 306 309 307 305 288 241 215 348 355 316 330 332 338 334 325 325
154 47 151 107 1 72 276 22 -0 71 135 168 175 150 122 116 105 91 92 95 88 80 72 66 65 61 45 22 5 350 334 322 310 305 303 302 282 214 218 213 341 335 308 327 325 311 311 308 305
114 145 52 9 123 231 278 220 218 201 199 199 101 129 106 101 104 103 113 108 86 74 75 66 62 50 31 17 3 343 332 327 317 309 302 281 223 220 215 296 310 295 317 307 301 292 294 303 312
3 38 63 107 107 156 174 257 217 196 178 161 120 130 128 127 126 120 117 102 94 96 89 85 80 68 44 27 17 8 355 342 330 320 297 260 241 226 295 315 312 304 279 284 290 301 305 303 288
189 129 110 107 219 51 145 276 347 147 152 143 136 132 122 124 127 127 130 115 109 102 98 87 75 46 30 19 10 5 359 357 348 339 308 270 282 252 236 254 304 279 276 290 288 296 291 277 274